Temperature
27 27 27 28 29 29 29 29 29 29 30 30 29 29 29 29 29 28 27 27 26 25 24 23 22 21 20 19 18 18 17 17 17 17 17 16 16 16 16 16 16 16 16 16
28 27 29 30 30 30 29 29 29 29 30 30 29 29 30 29 29 28 27 27 26 25 23 22 21 21 20 19 18 18 17 17 17 17 17 16 16 16 16 16 16 16 16 15
27 28 30 30 29 29 29 29 29 29 30 30 30 29 29 29 29 28 27 27 26 25 24 22 21 21 20 19 18 18 17 17 17 16 16 16 16 16 16 15 15 15 15 15
28 29 30 29 29 29 28 30 29 29 29 28 29 27 28 28 28 28 28 27 26 25 24 23 22 21 20 19 18 18 17 17 16 16 16 16 16 15 15 15 15 15 15 15
28 29 29 29 30 30 29 30 30 29 28 28 28 27 28 28 27 27 27 27 26 25 24 23 22 21 20 19 18 17 17 16 16 16 16 16 15 15 15 15 15 15 15 15
29 30 30 30 30 30 30 29 29 29 28 26 27 27 27 28 28 28 27 27 26 25 24 23 22 21 20 19 18 17 17 16 16 16 16 15 15 15 15 15 15 15 15 15
28 29 30 31 30 30 29 27 26 26 26 26 27 27 27 28 28 28 27 27 26 25 24 23 22 21 20 19 18 17 16 16 16 15 15 15 15 15 15 15 15 15 14 14
27 28 30 30 29 28 28 28 26 24 25 26 27 27 27 28 28 28 27 26 25 24 23 22 22 21 20 19 18 17 16 16 15 15 15 15 15 15 15 15 15 14 14 14
27 27 30 30 30 29 27 27 28 26 26 25 26 26 27 27 28 27 27 26 25 24 23 22 21 20 19 19 18 17 16 16 15 15 15 15 15 15 15 15 14 14 14 14
28 27 28 30 29 29 28 28 26 25 24 24 25 25 26 26 26 27 26 26 24 23 23 22 21 20 19 18 18 17 16 16 16 15 15 15 15 15 14 14 14 14 14 14
28 26 27 28 28 28 28 27 27 26 25 24 23 24 27 26 26 26 26 25 24 23 22 21 21 20 19 18 18 17 16 16 16 15 15 15 15 15 14 14 14 14 14 14
27 26 26 27 28 29 28 27 27 25 25 25 24 24 26 26 26 26 25 25 24 23 22 21 20 20 19 18 17 17 16 16 16 15 15 15 15 14 14 14 14 14 14 14
26 25 24 25 27 28 28 28 28 27 26 25 24 24 26 26 26 25 25 24 23 22 22 21 20 19 19 18 18 17 16 16 16 15 15 15 14 14 14 14 14 14 14 14
26 25 24 24 25 26 26 27 27 26 25 25 25 24 25 25 25 24 24 23 22 22 21 21 20 19 19 18 18 17 16 16 16 15 15 15 14 14 14 14 14 14 14 14
26 25 25 25 26 26 26 26 26 26 25 25 24 24 24 24 24 24 23 22 22 21 21 20 19 19 18 18 17 17 16 16 16 15 15 15 15 14 14 14 14 14 13 14
25 24 24 24 26 26 26 26 26 26 26 25 25 23 24 24 24 23 22 22 21 21 20 20 19 19 18 18 17 17 16 16 16 15 15 15 14 14 14 14 14 14 14 13
24 23 23 23 24 24 24 25 25 25 25 25 23 23 24 23 23 22 21 21 21 20 20 19 18 18 17 17 17 17 16 16 15 15 15 15 14 14 14 14 14 14 13 13
23 23 22 23 22 21 23 25 25 24 24 24 23 23 23 22 22 21 20 20 20 19 19 18 18 17 17 17 16 16 16 16 15 15 15 15 15 14 14 14 14 14 13 13
24 22 22 22 22 22 23 24 24 23 22 22 22 22 22 22 21 20 20 19 19 19 18 18 17 17 16 16 16 16 15 15 15 15 15 15 14 14 14 14 14 14 13 13
24 23 22 21 21 21 21 23 24 23 21 22 22 21 21 21 20 20 19 18 18 18 17 17 17 16 16 16 15 15 15 15 15 15 14 14 14 14 14 14 14 14 13 13
22 21 21 20 20 20 21 22 23 21 20 20 21 21 20 20 19 18 18 18 17 17 17 16 16 16 15 15 15 15 15 14 14 14 14 14 14 14 14 14 13 13 13 13
21 20 20 20 19 19 20 21 20 19 19 20 20 19 19 18 18 18 17 17 17 16 16 16 16 15 15 15 15 14 14 14 14 14 14 14 14 14 14 13 13 13 13 13
20 19 19 19 18 18 19 18 18 19 19 18 18 18 18 17 17 17 17 16 16 15 15 15 15 15 15 15 14 14 14 14 14 14 14 14 14 14 13 13 13 13 13 13
18 19 19 18 18 18 18 18 18 18 18 17 17 17 17 17 16 16 16 15 15 15 15 15 14 14 14 14 14 14 14 14 13 13 13 13 13 13 13 13 13 13 13 13
17 18 18 17 18 18 18 17 17 17 17 17 17 17 17 16 16 15 15 15 14 14 14 14 14 14 14 14 14 14 13 13 13 13 13 13 13 13 13 13 13 13 13 13
17 17 16 16 17 17 17 17 16 16 16 16 16 16 16 15 15 15 14 14 14 14 14 14 13 13 13 13 13 13 13 13 13 13 13 13 13 13 13 13 13 13 13 13
Wind_Speed
16 16 16 16 16 16 15 14 13 11 10 13 12 11 11 11 12 11 11 11 11 10 11 11 11 11 10 8 8 7 6 6 5 4 4 3 2 2 2 2 3 4 4 3
16 19 19 17 16 16 15 15 14 10 11 11 12 11 10 11 11 10 11 11 11 11 11 12 12 11 11 10 9 8 7 6 5 4 4 3 3 2 2 2 3 3 4 4
18 16 15 15 16 15 15 14 13 13 13 12 12 12 10 11 10 10 11 10 11 12 12 12 12 11 11 11 10 8 7 6 5 4 3 3 2 2 2 3 3 3 4 4
17 18 16 16 17 15 14 14 13 15 13 11 11 10 9 11 11 12 11 11 11 12 12 12 12 12 11 11 10 9 7 6 5 5 4 4 4 3 3 2 2 3 4 4
17 18 17 16 16 14 14 15 15 15 14 13 13 11 9 11 12 13 11 11 11 11 11 11 11 11 11 10 10 9 8 7 6 5 4 4 3 2 2 2 2 3 3 4
19 18 17 15 14 14 13 14 15 14 12 14 12 10 8 8 10 11 11 11 10 10 10 10 9 9 10 9 10 9 8 7 6 5 4 4 3 2 2 3 3 3 3 3
18 19 17 15 15 14 12 11 8 8 8 10 9 9 6 5 7 8 10 12 11 11 11 10 10 9 9 9 9 9 9 7 6 6 4 3 3 4 4 3 3 3 2 3
15 14 13 13 13 11 11 13 10 8 9 8 9 8 3 3 4 5 7 9 10 10 10 10 9 9 9 9 8 9 9 8 7 6 4 3 2 2 2 2 3 3 3 3
11 12 11 11 10 12 12 11 10 9 12 11 7 4 3 4 6 7 8 10 10 10 10 10 9 9 8 8 7 8 8 7 7 6 5 4 3 2 2 2 2 2 3 3
11 13 12 11 11 13 12 10 7 7 8 9 9 8 4 7 7 8 8 9 10 10 10 9 9 9 8 8 7 7 8 7 6 6 5 5 3 3 2 2 2 2 2 2
11 12 12 11 13 12 11 12 9 8 8 8 8 5 1 5 6 6 8 8 10 10 10 10 9 9 8 8 8 7 7 7 6 6 5 4 4 3 3 2 2 2 2 2
8 9 11 13 13 13 12 12 12 9 8 8 8 5 1 3 5 6 7 8 9 9 10 10 10 9 8 8 8 7 7 7 7 6 5 4 3 3 3 3 2 2 2 2
5 5 9 10 9 10 10 12 12 10 9 9 9 4 1 3 4 6 7 8 9 9 9 10 9 8 7 7 7 8 7 6 6 6 6 5 4 4 3 2 2 2 2 2
5 7 10 12 10 9 11 13 11 9 9 9 8 5 2 1 4 5 7 7 7 8 8 8 8 7 6 6 6 7 7 6 5 5 5 5 5 4 3 3 2 3 2 2
6 11 13 14 15 13 13 15 13 10 10 9 5 4 2 0 4 6 6 6 7 7 8 8 7 5 5 5 6 6 6 5 5 5 5 5 5 4 3 3 3 3 3 3
5 9 12 14 15 13 14 13 12 11 8 8 4 2 3 3 3 6 6 6 5 5 7 7 7 5 4 4 4 5 5 5 5 4 4 4 4 4 4 4 4 3 3 3
7 7 10 13 12 11 12 10 7 5 5 3 3 1 2 2 5 5 6 6 5 4 5 6 6 5 4 3 2 3 4 5 5 5 5 5 5 5 4 4 4 4 3 3
8 8 7 10 9 11 7 5 4 2 1 3 3 2 2 2 5 7 7 6 5 4 4 4 4 4 3 2 2 1 2 4 3 3 4 4 4 4 4 4 4 4 3 3
9 8 7 8 11 10 7 5 4 3 2 2 2 3 3 3 6 6 6 5 4 4 3 4 3 3 3 2 2 2 1 2 2 2 2 2 3 3 3 3 3 3 3 3
9 7 8 9 10 9 5 6 6 2 4 3 3 2 3 3 3 3 4 4 4 4 3 3 3 3 3 3 2 2 1 1 2 2 2 1 1 2 3 3 3 3 3 4
8 8 9 10 9 5 5 4 2 3 1 2 2 2 2 2 2 3 3 3 3 4 3 2 2 3 3 3 2 2 1 0 1 2 2 2 2 2 2 2 3 3 3 3
5 7 8 9 8 4 5 2 2 3 3 4 4 4 4 4 4 3 3 4 4 4 3 2 2 3 3 3 2 2 1 1 1 0 1 1 2 3 2 2 2 3 3 4
1 2 2 1 0 2 5 5 5 5 4 5 5 4 4 4 3 2 3 4 4 4 3 2 2 2 2 2 2 2 1 1 0 1 1 2 2 2 2 3 4 3 3 3
3 3 1 1 1 3 5 6 6 5 5 4 4 3 3 3 3 3 3 2 3 2 2 2 2 2 1 1 2 2 2 1 1 1 2 3 3 4 3 3 3 3 3 3
4 3 2 1 2 3 3 5 5 5 4 4 3 3 2 3 3 3 2 2 2 2 2 1 1 1 1 0 1 1 2 2 2 2 4 4 5 5 4 4 4 4 3 4
4 3 2 2 2 2 3 4 4 4 3 3 3 3 2 3 2 2 2 2 1 1 2 2 1 1 1 1 1 0 0 1 2 3 4 4 4 4 4 4 3 3 4 5
Wind_Direction
228 228 236 241 240 250 258 265 267 253 232 237 237 234 216 203 206 202 204 199 190 186 175 165 160 156 153 152 155 157 163 159 167 171 173 186 182 176 171 156 151 160 177 184
237 234 238 246 251 251 256 260 265 264 250 246 245 240 221 204 212 207 206 200 187 181 173 166 164 163 163 163 163 164 167 168 180 175 178 190 187 186 182 171 156 179 189 191
235 243 242 246 250 252 256 257 264 267 258 257 260 249 224 207 201 207 207 200 189 183 178 172 171 170 171 169 167 169 170 171 181 176 184 195 185 194 191 178 179 191 197 198
242 246 246 247 250 254 260 262 261 261 263 266 264 260 223 199 198 205 201 196 195 191 179 177 173 172 175 172 166 162 163 169 178 180 192 193 193 205 204 194 192 197 193 198
249 248 248 249 251 254 260 265 263 259 259 265 260 260 242 196 199 200 197 196 193 189 178 169 172 172 171 167 164 162 163 167 172 183 186 194 209 212 196 187 189 199 203 205
255 255 250 250 253 250 259 268 267 262 256 252 253 259 254 204 200 192 185 191 187 176 167 165 169 165 164 164 163 160 159 163 169 181 192 195 203 203 212 212 205 208 201 206
251 249 246 241 247 245 248 257 264 262 248 251 248 248 240 187 193 189 184 182 171 166 163 165 167 167 165 166 164 160 161 167 172 183 196 200 210 210 214 214 208 213 214 216
255 250 237 237 240 245 247 246 247 262 267 272 254 244 219 187 161 151 165 160 157 156 159 164 167 163 164 165 164 163 167 172 175 178 186 197 205 219 214 215 225 211 215 215
262 260 257 245 245 241 246 249 264 264 274 280 271 251 208 163 145 157 171 165 159 159 159 161 159 156 159 164 166 164 165 173 176 176 184 190 187 208 235 231 224 216 227 217
266 275 263 251 247 241 232 241 258 259 267 275 272 259 204 163 162 170 162 159 152 155 157 153 152 153 154 159 161 162 167 171 172 177 194 190 185 199 218 219 228 224 220 226
259 267 264 254 251 247 233 235 246 254 259 264 273 276 168 142 150 152 145 157 156 161 160 153 150 151 153 155 157 159 163 166 170 176 179 177 185 196 205 202 195 201 199 200
250 262 262 254 253 254 243 235 238 246 252 261 268 262 334 107 118 126 137 151 152 155 157 154 151 151 155 158 157 159 164 173 174 174 172 172 181 187 199 206 195 195 196 205
264 259 261 255 239 241 250 241 238 242 250 256 262 253 236 82 94 120 128 131 141 146 151 152 147 153 160 159 161 162 168 173 175 173 173 173 184 188 199 211 209 208 209 211
238 251 255 257 257 266 268 267 253 253 256 257 260 246 241 103 108 112 119 129 140 145 147 147 149 156 163 165 163 164 168 171 176 176 176 178 186 192 197 203 214 212 207 207
243 254 257 261 264 263 264 267 263 252 259 265 269 242 220 174 131 131 127 129 142 148 150 148 149 155 159 162 160 165 168 170 176 181 182 185 185 184 193 203 206 204 207 210
234 256 267 269 265 263 265 260 252 252 257 267 276 267 170 129 128 123 125 128 136 148 148 140 145 153 154 161 175 174 172 169 170 181 185 181 181 186 195 203 199 194 197 207
243 250 261 268 276 283 268 268 258 249 259 279 283 307 56 125 128 127 121 125 132 130 134 134 130 122 126 155 183 190 174 166 177 187 190 185 191 199 199 206 196 192 194 200
249 255 251 260 266 261 257 291 283 242 31 29 44 58 59 103 119 114 108 107 105 110 114 114 117 118 120 121 121 138 172 163 177 192 200 192 195 199 199 204 201 198 196 202
228 239 248 256 253 257 259 286 294 256 188 38 35 24 32 88 117 110 98 91 94 85 103 109 116 125 120 110 105 123 150 149 169 193 207 203 199 202 196 206 211 202 199 208
217 218 238 255 259 259 264 298 302 250 218 21 27 53 62 88 149 135 89 89 102 91 89 107 123 115 114 100 97 118 135 164 200 208 209 212 208 205 203 207 210 207 212 218
213 214 231 250 258 266 316 317 282 211 268 4 15 59 92 70 50 109 116 99 90 96 98 112 123 122 116 112 108 118 116 260 242 215 205 207 239 231 213 205 216 217 215 222
234 231 229 238 244 247 355 22 52 49 34 25 35 50 66 69 80 110 118 111 99 93 90 95 105 110 117 125 132 150 159 249 300 216 185 207 242 254 234 206 222 232 225 225
326 331 286 305 127 52 37 49 52 57 54 49 46 53 78 89 95 97 84 86 88 77 80 71 94 113 114 129 149 176 203 228 311 324 245 230 245 250 229 211 220 230 226 227
342 5 6 62 101 43 49 45 41 47 49 46 44 39 91 105 97 77 93 88 85 78 81 69 74 87 118 152 173 197 213 209 228 253 261 244 238 235 223 219 223 221 221 226
322 332 354 342 13 346 8 21 25 25 27 31 32 32 103 111 109 110 124 107 88 83 74 87 83 81 64 66 210 220 201 205 224 240 249 247 241 231 226 225 229 221 211 203
332 352 312 295 330 317 343 357 11 21 16 29 39 32 67 98 102 98 98 100 91 73 55 52 46 28 13 346 315 121 176 232 239 250 255 254 239 230 224 223 223 208 206 188
Height
1468 1470 1468 1462 1458 1457 1456 1457 1457 1451 1446 1450 1452 1453 1452 1455 1458 1462 1465 1468 1472 1476 1480 1484 1487 1489 1492 1494 1496 1498 1500 1501 1502 1504 1506 1508 1510 1511 1512 1513 1513 1514 1515 1515
1464 1463 1456 1453 1451 1451 1453 1457 1454 1448 1443 1445 1448 1449 1447 1450 1454 1457 1461 1464 1468 1473 1477 1481 1484 1487 1489 1491 1494 1496 1498 1499 1501 1503 1504 1506 1508 1509 1510 1511 1512 1512 1513 1514
1460 1453 1448 1449 1449 1451 1451 1452 1452 1451 1444 1442 1445 1450 1446 1446 1451 1455 1458 1461 1465 1470 1474 1478 1481 1485 1487 1489 1491 1494 1496 1498 1499 1501 1503 1505 1506 1507 1508 1509 1509 1510 1511 1511
1450 1445 1444 1446 1446 1446 1451 1443 1444 1446 1449 1451 1449 1461 1449 1444 1448 1451 1454 1458 1462 1467 1471 1474 1477 1481 1485 1487 1490 1492 1494 1496 1498 1499 1501 1502 1503 1504 1506 1507 1507 1508 1509 1509
1446 1441 1441 1443 1442 1441 1444 1439 1440 1441 1446 1451 1449 1457 1450 1441 1447 1448 1450 1454 1459 1463 1467 1471 1476 1479 1483 1485 1488 1489 1491 1493 1495 1497 1498 1500 1501 1502 1504 1505 1505 1506 1506 1507
1440 1436 1435 1436 1436 1436 1437 1439 1440 1439 1444 1461 1451 1456 1453 1440 1441 1443 1447 1451 1456 1461 1465 1470 1474 1478 1481 1484 1486 1487 1489 1491 1493 1495 1496 1497 1499 1500 1501 1502 1503 1503 1504 1504
1441 1434 1430 1431 1435 1434 1438 1450 1462 1464 1464 1460 1445 1450 1447 1436 1434 1438 1443 1448 1453 1458 1463 1468 1472 1475 1479 1482 1484 1486 1487 1489 1491 1493 1494 1495 1497 1498 1499 1500 1500 1501 1501 1502
1444 1441 1428 1427 1432 1438 1440 1446 1464 1476 1469 1457 1446 1448 1441 1433 1433 1437 1442 1446 1452 1456 1461 1466 1470 1473 1477 1480 1482 1484 1485 1487 1489 1491 1492 1493 1495 1496 1497 1497 1498 1498 1499 1500
1441 1440 1425 1425 1426 1431 1440 1442 1441 1454 1456 1462 1452 1443 1437 1432 1434 1439 1443 1447 1451 1455 1460 1464 1468 1471 1475 1478 1480 1482 1483 1485 1487 1489 1490 1491 1493 1493 1494 1495 1496 1496 1497 1497
1433 1440 1428 1424 1426 1426 1431 1436 1445 1454 1467 1471 1460 1451 1443 1436 1437 1438 1442 1446 1450 1455 1459 1463 1467 1470 1473 1476 1478 1480 1482 1483 1485 1487 1488 1489 1490 1491 1492 1493 1493 1493 1494 1494
1430 1439 1434 1428 1431 1431 1433 1437 1440 1444 1450 1465 1470 1458 1433 1434 1435 1437 1440 1446 1450 1454 1459 1462 1466 1469 1472 1474 1477 1478 1480 1482 1483 1485 1486 1487 1488 1489 1490 1491 1491 1491 1491 1492
1429 1435 1439 1433 1423 1420 1423 1430 1437 1451 1454 1451 1458 1457 1431 1432 1432 1435 1439 1445 1450 1454 1458 1461 1464 1468 1471 1473 1475 1477 1479 1480 1482 1483 1484 1485 1486 1487 1488 1488 1488 1489 1489 1490
1430 1437 1447 1441 1433 1424 1425 1424 1426 1432 1441 1448 1455 1454 1431 1431 1434 1437 1441 1446 1450 1454 1457 1460 1463 1467 1470 1472 1474 1475 1477 1479 1480 1481 1482 1483 1484 1485 1485 1486 1486 1487 1487 1488
1429 1436 1444 1449 1440 1432 1433 1428 1425 1431 1440 1443 1444 1446 1437 1435 1437 1439 1443 1447 1450 1453 1457 1460 1463 1466 1469 1470 1472 1474 1476 1478 1479 1480 1481 1481 1482 1483 1484 1484 1484 1484 1485 1485
1428 1434 1433 1431 1427 1427 1429 1429 1425 1429 1433 1438 1440 1441 1440 1437 1438 1440 1444 1447 1450 1453 1456 1459 1462 1466 1468 1470 1471 1473 1475 1476 1477 1479 1479 1480 1481 1481 1482 1482 1482 1483 1483 1483
1427 1433 1432 1432 1425 1424 1427 1423 1424 1425 1427 1430 1434 1439 1436 1438 1439 1441 1444 1448 1451 1453 1456 1459 1461 1464 1467 1468 1470 1472 1473 1474 1476 1477 1478 1479 1480 1480 1480 1480 1480 1481 1481 1482
1428 1434 1438 1438 1429 1430 1434 1426 1423 1424 1425 1429 1438 1440 1437 1438 1439 1442 1445 1448 1451 1454 1455 1458 1460 1462 1465 1467 1469 1470 1471 1472 1474 1475 1476 1477 1478 1479 1479 1479 1479 1479 1479 1480
1430 1433 1435 1437 1440 1451 1435 1421 1421 1425 1429 1432 1435 1437 1438 1440 1441 1444 1446 1450 1452 1454 1457 1457 1459 1462 1464 1465 1466 1468 1470 1469 1471 1473 1474 1475 1476 1477 1477 1478 1477 1477 1478 1478
1424 1431 1436 1438 1441 1439 1429 1424 1423 1427 1434 1435 1437 1439 1439 1441 1443 1447 1448 1450 1453 1455 1457 1458 1460 1461 1463 1464 1465 1467 1467 1468 1469 1471 1472 1473 1474 1474 1475 1476 1476 1476 1476 1476
1421 1425 1434 1437 1443 1445 1436 1426 1423 1427 1437 1437 1437 1439 1441 1442 1445 1449 1450 1451 1453 1456 1457 1459 1460 1461 1462 1463 1464 1465 1466 1467 1468 1468 1469 1470 1471 1472 1472 1473 1473 1473 1474 1473
1427 1430 1435 1438 1442 1440 1433 1428 1426 1440 1444 1439 1438 1439 1442 1444 1447 1450 1451 1452 1454 1455 1457 1459 1460 1461 1461 1462 1463 1464 1465 1465 1466 1466 1467 1467 1469 1470 1470 1471 1471 1471 1471 1472
1429 1433 1435 1437 1443 1447 1435 1432 1436 1441 1440 1439 1439 1441 1443 1445 1447 1450 1451 1452 1453 1455 1456 1458 1459 1460 1461 1461 1462 1463 1463 1464 1464 1464 1465 1465 1466 1467 1468 1468 1469 1469 1469 1469
1430 1434 1434 1438 1444 1442 1439 1440 1441 1440 1440 1441 1441 1443 1444 1446 1448 1449 1450 1452 1453 1455 1456 1457 1458 1459 1460 1461 1461 1462 1462 1462 1462 1463 1463 1464 1464 1465 1466 1466 1466 1467 1467 1467
1435 1434 1436 1439 1440 1440 1441 1442 1442 1442 1442 1443 1443 1445 1446 1447 1448 1450 1451 1453 1454 1455 1456 1456 1457 1457 1458 1459 1460 1460 1460 1461 1461 1461 1462 1462 1462 1463 1463 1463 1464 1464 1464 1464
1440 1438 1439 1441 1442 1442 1442 1443 1443 1443 1443 1444 1444 1445 1446 1447 1448 1450 1452 1453 1454 1454 1455 1456 1456 1457 1457 1458 1458 1458 1459 1459 1459 1459 1460 1460 1460 1460 1461 1461 1461 1461 1461 1462
1442 1442 1444 1445 1445 1444 1444 1443 1443 1444 1444 1445 1445 1446 1447 1448 1449 1451 1452 1453 1453 1454 1455 1455 1456 1456 1456 1456 1456 1456 1457 1457 1458 1458 1458 1458 1458 1458 1458 1458 1458 1458 1459 1460